GEOSCAN 4 (RS92S4)

Last updated on Mon Sep 21 2026 00:03:15 GMT+0000 (Coordinated Universal Time)

1 64892U 25155S 26263.58562803 .00011441 00000+0 33025-3 0 9999 2 64892 97.4661 234.1000 0005377 177.0278 183.0998 15.35832272 95457
UTC large
Height (km)
Speed (km/s)
/
Latitude / Longitude
Inclination (degrees)
Orbital Period (minutes)
Azimuth
Elevation
Range (km)
Doppler Factor

Next 0 passes for location: London (51.5072 / 0.1276)

No passes found over London.
GEOSCAN 4 (RS92S4)